TimeEST,TemperatureF,Dew PointF,Humidity,Sea Level PressureIn,VisibilityMPH,Wind Direction,Wind SpeedMPH,Gust SpeedMPH,PrecipitationIn,Events,Conditions,WindDirDegrees,DateUTC
12:08 AM,51.8,51.8,100,29.84,6.0,WSW,13.8,-,N/A,,Overcast,250,2012-12-08 05:08:00
12:56 AM,51.1,50.0,96,29.84,7.0,WSW,12.7,-,N/A,,Mostly Cloudy,240,2012-12-08 05:56:00
1:12 AM,51.8,48.2,88,29.83,7.0,WSW,9.2,-,N/A,,Mostly Cloudy,240,2012-12-08 06:12:00
1:56 AM,48.0,46.9,96,29.83,6.0,SW,9.2,-,N/A,,Mostly Cloudy,230,2012-12-08 06:56:00
2:51 AM,48.2,48.2,100,29.85,4.0,WSW,12.7,-,N/A,,Mostly Cloudy,250,2012-12-08 07:51:00
2:56 AM,50.0,48.0,93,29.86,4.0,West,12.7,-,N/A,,Mostly Cloudy,260,2012-12-08 07:56:00
3:56 AM,48.9,48.0,97,29.85,4.0,SW,6.9,-,N/A,,Overcast,230,2012-12-08 08:56:00
4:56 AM,50.0,48.9,96,29.84,4.0,SSW,4.6,-,N/A,,Overcast,210,2012-12-08 09:56:00
5:56 AM,50.0,48.9,96,29.84,3.0,SW,5.8,-,0.00,,Overcast,230,2012-12-08 10:56:00
6:56 AM,50.0,48.9,96,29.85,3.0,SSW,5.8,-,0.00,,Overcast,210,2012-12-08 11:56:00
7:37 AM,50.0,48.2,94,29.85,2.5,SSW,8.1,-,N/A,,Overcast,200,2012-12-08 12:37:00
7:56 AM,50.0,48.9,96,29.87,2.5,SSW,8.1,-,N/A,,Overcast,210,2012-12-08 12:56:00
8:11 AM,50.0,50.0,100,29.87,2.5,SW,8.1,-,N/A,,Overcast,220,2012-12-08 13:11:00
8:32 AM,50.0,50.0,100,29.88,2.5,SW,9.2,-,N/A,,Overcast,230,2012-12-08 13:32:00
8:56 AM,50.0,50.0,100,29.88,2.0,SW,6.9,-,0.03,Rain,Light Rain,230,2012-12-08 13:56:00
9:17 AM,50.0,50.0,100,29.88,1.8,West,6.9,-,0.00,,Overcast,260,2012-12-08 14:17:00
9:48 AM,50.0,50.0,100,29.89,2.0,WSW,8.1,-,0.00,Rain,Light Rain,250,2012-12-08 14:48:00
9:56 AM,50.0,50.0,100,29.90,2.0,WSW,8.1,-,0.01,Rain,Light Rain,240,2012-12-08 14:56:00
10:56 AM,51.1,50.0,96,29.89,2.5,WSW,8.1,-,0.00,,Overcast,240,2012-12-08 15:56:00
11:10 AM,51.8,50.0,94,29.89,2.5,SW,5.8,-,N/A,,Overcast,220,2012-12-08 16:10:00
11:31 AM,51.8,50.0,94,29.89,3.0,West,8.1,-,N/A,,Overcast,260,2012-12-08 16:31:00
11:39 AM,51.8,50.0,94,29.89,3.0,West,6.9,-,N/A,,Overcast,260,2012-12-08 16:39:00
11:56 AM,51.1,50.0,96,29.89,4.0,West,6.9,-,0.00,Rain,Light Rain,270,2012-12-08 16:56:00
12:20 PM,51.8,50.0,94,29.89,4.0,WNW,10.4,-,0.00,,Overcast,290,2012-12-08 17:20:00
12:39 PM,51.8,50.0,94,29.89,5.0,WNW,8.1,-,0.00,,Mostly Cloudy,290,2012-12-08 17:39:00
12:48 PM,53.6,50.0,88,29.89,5.0,WNW,9.2,-,0.00,,Overcast,300,2012-12-08 17:48:00
12:56 PM,52.0,48.9,89,29.90,6.0,WNW,9.2,-,0.00,,Overcast,300,2012-12-08 17:56:00
1:34 PM,51.8,48.2,88,29.90,6.0,NW,12.7,-,N/A,,Overcast,320,2012-12-08 18:34:00
1:42 PM,51.8,46.4,82,29.90,8.0,NW,12.7,-,N/A,,Overcast,320,2012-12-08 18:42:00
1:56 PM,50.0,46.9,89,29.91,10.0,NW,12.7,-,N/A,,Overcast,310,2012-12-08 18:56:00
2:48 PM,48.2,46.4,93,29.93,5.0,NW,11.5,-,N/A,,Overcast,320,2012-12-08 19:48:00
2:56 PM,48.9,46.0,90,29.94,4.0,NNW,9.2,-,N/A,,Overcast,330,2012-12-08 19:56:00
3:49 PM,48.2,46.4,93,29.95,5.0,NW,11.5,-,N/A,,Overcast,320,2012-12-08 20:49:00
3:56 PM,48.0,46.0,93,29.96,5.0,NNW,10.4,-,N/A,,Overcast,330,2012-12-08 20:56:00
4:56 PM,48.0,45.0,89,29.99,6.0,NW,8.1,-,N/A,,Overcast,320,2012-12-08 21:56:00
5:56 PM,46.9,43.0,86,30.00,9.0,NNW,8.1,-,N/A,,Overcast,330,2012-12-08 22:56:00
6:45 PM,46.4,42.8,87,30.02,7.0,North,8.1,-,N/A,,Overcast,10,2012-12-08 23:45:00
6:56 PM,46.0,43.0,89,30.03,7.0,North,8.1,-,N/A,,Overcast,10,2012-12-08 23:56:00
7:56 PM,46.4,42.8,87,30.05,6.0,NE,5.8,-,N/A,,Overcast,40,2012-12-09 00:56:00
8:56 PM,44.6,42.8,93,30.04,6.0,NE,6.9,-,N/A,,Overcast,40,2012-12-09 01:56:00
9:23 PM,44.6,42.8,93,30.03,7.0,NE,9.2,-,N/A,,Overcast,40,2012-12-09 02:23:00
9:56 PM,45.0,42.1,90,30.06,10.0,NE,9.2,-,N/A,,Overcast,40,2012-12-09 02:56:00
10:37 PM,44.6,42.8,93,30.05,8.0,NE,12.7,-,N/A,,Overcast,50,2012-12-09 03:37:00
10:56 PM,43.0,41.0,93,30.06,5.0,NE,12.7,-,N/A,,Overcast,50,2012-12-09 03:56:00
11:56 PM,42.1,39.9,92,30.08,5.0,ENE,9.2,-,N/A,,Overcast,60,2012-12-09 04:56:00